Waarnemingen

Advertentie
Mijn weer
Gourdon, Frankrijk (7535): temperatuur & dauwpunt: 09.10.2019 21:00:00 - 15.10.2019 21:00:00 (CEST)Gourdon, Frankrijk (7535): temperatuur 5cm: 09.10.2019 21:00:00 - 15.10.2019 21:00:00 (CEST)Gourdon, Frankrijk (7535): temperatuur -20cm & temperatuur -100cm: 09.10.2019 21:00:00 - 15.10.2019 21:00:00 (CEST)Gourdon, Frankrijk (7535): windsnelheid & windstoten: 09.10.2019 21:00:00 - 15.10.2019 21:00:00 (CEST)Gourdon, Frankrijk (7535): windrichting: 09.10.2019 21:00:00 - 15.10.2019 21:00:00 (CEST)Gourdon, Frankrijk (7535): luchtdruk: 09.10.2019 21:00:00 - 15.10.2019 21:00:00 (CEST)Gourdon, Frankrijk (7535): zicht: 09.10.2019 21:00:00 - 15.10.2019 21:00:00 (CEST)Gourdon, Frankrijk (7535): Zonneschijnduur: 09.10.2019 21:00:00 - 15.10.2019 21:00:00 (CEST)Gourdon, Frankrijk (7535): neerslag: 09.10.2019 21:00:00 - 15.10.2019 21:00:00 (CEST)
Datum & Tijd tt [°C] td [°C] tt 5cm [°C] tt -20cm [°C] tt -100cm [°C] ff [km/u] ff [kn] fx [km/u] fx [kn] dd ppp [hPa] vv [km] sd [min] rr [mm]
15.10.2019 21:00:00 12,4 9,9 11,3 17,1 18,1 9 5 20 11 ZZW 1018,5 20 0 0,0
15.10.2019 20:00:00 12,4 9,9 11,2 17,1 18,1 9 5 24 13 ZZW 1018,0 20 0 0,0
15.10.2019 19:00:00 13,4 10,4 12,3 17,0 18,1 8 4 32 18 ZZW 1017,2 20 17 0,0
15.10.2019 18:00:00 14,9 10,7 16,0 17,0 18,1 9 5 29 16 ZW 1016,2 20 50 0,0
15.10.2019 17:00:00 15,6 10,8 17,0 16,9 18,1 12 7 26 14 ZW 1015,8 20 60 0,0
15.10.2019 16:00:00 13,3 11,0 12,8 16,8 18,1 9 5 35 19 WZW 1016,2 20 14 0,4
15.10.2019 15:00:00 15,6 9,5 16,0 16,7 18,1 8 5 28 15 W 1015,3 20 20 0,0
15.10.2019 14:00:00 15,0 11,4 13,1 16,7 18,1 7 4 29 16 W 1015,5 20 34 0,2
15.10.2019 13:00:00 12,9 10,8 13,0 16,7 18,1 8 4 29 16 W 1015,9 12 9 0,2
15.10.2019 12:00:00 12,8 11,2 11,9 16,8 18,1 8 4 24 13 W 1015,5 20 15 0,0
15.10.2019 11:00:00 11,1 10,8 10,8 16,9 18,2 9 5 26 14 WZW 1014,8 17 0 0,7
15.10.2019 10:00:00 10,7 10,4 10,4 17,0 18,1 9 5 20 11 ZW 1014,1 16 0 0,8
15.10.2019 09:00:00 10,4 9,9 10,2 17,0 18,1 10 5 27 15 ZW 1013,4 20 0 0,6
15.10.2019 08:00:00 10,6 10,1 10,3 17,2 18,2 9 5 28 15 WZW 1012,8 10 0 0,6
15.10.2019 07:00:00 11,2 10,9 11,0 17,2 18,1 8 4 20 11 W 1011,8 4,4 0 2,8
15.10.2019 06:00:00 11,5 11,0 11,2 17,3 18,2 9 5 36 20 WZW 1011,8 13 0 0,8
15.10.2019 05:00:00 12,1 11,8 11,5 17,4 18,1 8 5 16 8 ZZW 1010,8 20 0 0,0
15.10.2019 04:00:00 12,5 12,2 12,2 17,5 18,1 9 5 19 11 ZZW 1011,0 12 0 1,0
15.10.2019 03:00:00 12,8 12,5 12,5 17,6 18,1 8 4 16 8 ZZW 1011,0 12 0 0,4
15.10.2019 02:00:00 12,8 12,5 12,5 17,7 18,1 0 0 8 5 N 1010,8 20 0 0,6
15.10.2019 01:00:00 13,1 12,8 12,6 17,8 18,1 4 2 9 5 WZW 1011,1 4,1 0 0,2
15.10.2019 00:00:00 13,0 12,5 12,6 17,9 18,1 5 3 21 11 NW 1009,7 20 0 0,6
14.10.2019 23:00:00 13,2 12,9 12,9 18,1 18,1 10 6 18 10 ONO 1009,7 20 0 2,6
14.10.2019 22:00:00 13,4 12,8 13,0 18,2 18,1 6 3 21 11 NNO 1009,5 3,7 0 15,4
14.10.2019 21:00:00 15,6 12,0 15,0 18,2 18,1 10 6 28 15 NW 1009,4 20 0 0,0
14.10.2019 20:00:00 17,3 13,6 16,3 18,2 18,1 10 5 39 21 WNW 1008,5 20 0 0,0
14.10.2019 19:00:00 19,4 15,5 17,1 18,1 18,1 19 10 35 19 ZO 1007,0 20 0 0,0
14.10.2019 18:00:00 19,1 16,0 17,3 18,1 18,1 18 10 33 18 ZO 1007,0 20 0 0,6
14.10.2019 17:00:00 20,8 15,3 17,4 18,0 18,1 13 7 29 15 ZZO 1007,8 14 0 0,2
14.10.2019 16:00:00 22,9 14,7 23,0 17,9 18,1 13 7 26 14 ZO 1008,5 20 0 0,0
14.10.2019 15:00:00 22,9 14,7 22,5 17,8 18,1 11 6 55 30 Z 1009,5 20 0 0,0
14.10.2019 14:00:00 24,2 14,3 23,3 17,7 18,1 28 15 66 36 ZZO 1007,7 20 17 0,0
14.10.2019 13:00:00 22,7 13,7 22,8 17,7 18,1 34 18 73 40 ZO 1007,7 20 0 0,0
14.10.2019 12:00:00 22,9 13,9 24,3 17,7 18,1 34 18 76 41 ZO 1008,0 20 29 0,0
14.10.2019 11:00:00 22,4 14,0 22,3 17,7 18,1 37 20 73 40 ZO 1008,4 20 60 0,0
14.10.2019 10:00:00 20,1 13,3 18,6 17,8 18,1 41 22 70 38 ZO 1009,0 20 60 0,0
14.10.2019 09:00:00 18,7 13,1 17,3 17,8 18,1 39 21 70 38 ZO 1009,4 20 30 0,0
14.10.2019 08:00:00 18,3 12,9 17,1 17,9 18,1 37 20 62 33 ZO 1010,0 20 0 0,0
14.10.2019 07:00:00 18,1 13,0 16,7 17,9 18,0 33 18 58 31 ZO 1010,5 20 0 0,0
14.10.2019 06:00:00 18,2 13,1 16,8 18,0 18,0 20 11 57 31 ZZO 1011,7 20 0 0,0
14.10.2019 05:00:00 18,7 13,3 17,5 18,0 18,0 27 15 51 27 ZZO 1010,9 20 0 0,0
14.10.2019 04:00:00 19,0 14,0 17,7 18,1 18,0 30 16 54 29 ZO 1011,1 20 0 0,0
14.10.2019 03:00:00 18,9 14,4 16,8 18,1 18,0 21 11 48 26 ZO 1011,8 20 0 0,0
14.10.2019 02:00:00 18,5 14,2 16,6 18,2 18,0 16 9 36 20 ZO 1012,7 20 0 0,0
14.10.2019 01:00:00 18,2 13,9 17,0 18,3 18,0 19 11 42 23 ZO 1013,1 20 0 0,0
14.10.2019 00:00:00 18,7 14,2 17,4 18,3 18,0 21 11 47 25 ZO 1013,6 20 0 0,0
13.10.2019 23:00:00 19,1 14,6 18,1 18,3 18,0 28 15 59 32 ZZO 1013,7 20 0 0,0
13.10.2019 22:00:00 19,4 14,6 18,5 18,4 18,0 28 15 63 34 ZZO 1013,3 20 0 0,0
13.10.2019 21:00:00 19,8 14,6 18,9 18,4 18,0 30 16 59 32 ZO 1012,9 20 0 0,0
13.10.2019 20:00:00 20,6 14,5 19,6 18,3 18,0 31 17 52 28 ZO 1012,8 20 0 0,0
13.10.2019 19:00:00 22,1 15,0 21,0 18,2 18,0 21 12 48 26 ZO 1012,5 20 13 0,0
13.10.2019 18:00:00 23,9 15,1 25,7 18,1 18,0 24 13 46 25 ZO 1012,3 20 60 0,0
13.10.2019 17:00:00 25,6 15,3 30,3 17,9 18,0 21 12 51 28 ZZO 1011,9 20 60 0,0
13.10.2019 16:00:00 26,8 14,9 32,3 17,8 18,0 26 14 52 28 ZO 1011,3 20 60 0,0
13.10.2019 15:00:00 27,2 14,6 27,7 17,6 18,0 21 11 48 26 ZO 1011,7 20 43 0,0
13.10.2019 14:00:00 25,8 14,9 27,6 17,4 18,0 25 13 45 25 ZZO 1012,7 20 42 0,0
13.10.2019 13:00:00 25,2 15,5 25,9 17,4 18,0 28 15 57 31 ZZO 1012,6 20 38 0,0
13.10.2019 12:00:00 24,0 14,7 25,5 17,3 18,0 26 14 64 34 ZZO 1012,8 20 54 0,0
13.10.2019 11:00:00 21,9 15,0 20,1 17,3 18,0 32 17 57 31 ZZO 1012,9 20 44 0,0
13.10.2019 10:00:00 19,8 14,6 18,3 17,4 18,0 30 16 59 32 ZO 1013,0 20 29 0,0
13.10.2019 09:00:00 18,8 14,1 17,3 17,4 18,0 29 16 63 34 ZZO 1012,8 20 16 0,0
13.10.2019 08:00:00 18,2 13,7 17,0 17,4 18,0 30 16 58 31 ZO 1012,3 20 0 0,0
13.10.2019 07:00:00 18,4 13,7 17,3 17,5 18,0 31 17 56 31 ZO 1012,1 20 0 0,0
13.10.2019 06:00:00 18,3 13,8 17,2 17,5 18,0 28 15 54 29 ZZO 1012,2 20 0 0,0
13.10.2019 05:00:00 18,4 13,9 17,3 17,6 18,0 29 15 57 31 ZZO 1012,6 20 0 0,0
13.10.2019 04:00:00 18,4 13,5 17,3 17,6 17,9 27 15 66 36 ZZO 1012,9 20 0 0,0
13.10.2019 03:00:00 18,3 13,6 17,3 17,7 18,0 29 16 58 31 ZO 1013,3 20 0 0,0
13.10.2019 02:00:00 18,5 13,8 17,4 17,7 18,0 27 14 55 30 ZO 1013,7 20 0 0,0
13.10.2019 01:00:00 18,6 13,9 17,4 17,8 18,0 20 11 49 27 ZZO 1014,2 20 0 0,0
13.10.2019 00:00:00 18,9 14,2 17,8 17,8 18,0 24 13 54 29 ZZO 1014,2 20 0 0,0
12.10.2019 23:00:00 19,1 14,4 18,1 17,8 18,0 23 12 58 31 ZO 1014,2 20 0 0,0
12.10.2019 22:00:00 19,6 14,6 19,0 17,8 18,0 31 17 73 39 ZZO 1013,9 20 0 0,0
12.10.2019 21:00:00 20,3 14,6 19,7 17,7 18,0 35 19 61 33 ZO 1013,6 20 0 0,0
12.10.2019 20:00:00 21,8 15,2 21,0 17,6 18,0 29 16 51 28 ZZO 1013,4 20 0 0,0
12.10.2019 19:00:00 23,4 16,0 22,5 17,5 18,0 29 16 49 26 ZO 1012,7 20 0 0,0
12.10.2019 18:00:00 25,1 15,7 25,0 17,3 18,0 18 10 37 20 ZZO 1012,7 20 16 0,0
12.10.2019 17:00:00 24,7 15,9 24,6 17,2 18,0 11 6 28 15 Z 1013,4 20 0 0,0
12.10.2019 16:00:00 24,9 15,8 25,7 17,0 18,0 16 9 40 22 Z 1013,7 20 25 0,0
12.10.2019 15:00:00 25,7 16,3 25,8 16,9 18,0 18 10 38 21 ZZO 1014,0 20 44 0,0
12.10.2019 14:00:00 23,8 16,1 25,5 16,7 18,0 21 11 37 20 Z 1014,5 20 4 0,0
12.10.2019 13:00:00 22,2 16,2 23,1 16,6 18,0 18 10 37 20 Z 1014,9 20 19 0,0
12.10.2019 12:00:00 21,4 15,9 22,1 16,6 18,0 18 10 39 21 Z 1015,2 20 2 0,0
12.10.2019 11:00:00 20,5 15,5 18,8 16,5 18,0 21 12 39 21 Z 1015,1 20 18 0,0
12.10.2019 10:00:00 18,8 15,1 16,6 16,6 18,0 17 9 34 19 Z 1015,0 20 5 0,2
12.10.2019 09:00:00 17,9 14,6 15,0 16,6 18,0 16 9 42 23 ZZO 1014,4 20 0 0,0
12.10.2019 08:00:00 17,0 14,1 14,9 16,6 18,0 22 12 37 20 ZO 1014,0 20 0 0,0
12.10.2019 07:00:00 16,9 13,0 14,7 16,7 18,0 6 3 23 12 ZZO 1014,3 20 0 0,0
12.10.2019 06:00:00 16,0 12,5 13,3 16,7 18,0 11 6 27 15 ZO 1014,7 20 0 0,0
12.10.2019 05:00:00 15,1 12,4 12,3 16,8 18,0 10 5 16 9 OZO 1015,6 20 0 0,2
12.10.2019 04:00:00 16,1 11,7 13,1 16,8 18,0 9 5 25 13 ZZO 1015,9 20 0 0,0
12.10.2019 03:00:00 15,7 10,9 12,5 16,9 18,0 8 4 20 11 ZZO 1016,3 20 0 0,0
12.10.2019 02:00:00 15,5 10,5 13,0 17,0 18,0 9 5 17 9 ZO 1016,8 20 0 0,0
12.10.2019 01:00:00 16,8 10,6 14,2 17,1 18,1 8 4 28 15 ZZO 1017,1 20 0 0,0
12.10.2019 00:00:00 17,2 10,8 15,1 17,1 18,0 13 7 30 16 ZZO 1017,1 20 0 0,0
11.10.2019 23:00:00 18,2 11,0 16,1 17,2 18,1 13 7 32 17 Z 1017,0 20 0 0,0
11.10.2019 22:00:00 19,3 10,8 16,1 17,2 18,0 16 8 32 17 ZZO 1016,3 20 0 0,0
11.10.2019 21:00:00 18,7 10,5 14,5 17,2 18,1 11 6 18 10 ZZO 1016,0 20 0 0,0
11.10.2019 20:00:00 19,4 10,9 14,6 17,1 18,1 8 4 11 6 ZO 1016,3 20 0 0,0
11.10.2019 19:00:00 22,9 9,7 19,5 17,0 18,1 8 4 19 11 Z 1015,7 20 15 0,0
11.10.2019 18:00:00 24,9 9,2 28,2 16,8 18,1 13 7 23 12 Z 1015,6 20 60 0,0
11.10.2019 17:00:00 25,3 8,7 31,0 16,5 18,1 15 8 27 14 Z 1015,8 20 60 0,0
11.10.2019 16:00:00 25,7 9,9 31,5 16,3 18,1 10 5 24 13 Z 1016,2 20 60 0,0
11.10.2019 15:00:00 24,7 10,6 30,6 16,1 18,1 13 7 23 12 Z 1017,0 20 60 0,0
11.10.2019 14:00:00 23,0 10,4 29,1 15,9 18,1 12 7 24 13 Z 1018,0 20 60 0,0
11.10.2019 13:00:00 21,9 11,0 26,1 15,9 18,1 9 5 24 13 ZZO 1018,7 20 60 0,0
11.10.2019 12:00:00 19,0 9,2 23,0 15,9 18,1 13 7 29 15 ZZO 1019,4 20 60 0,0
11.10.2019 11:00:00 17,0 9,9 18,9 16,0 18,1 8 5 16 9 ZO 1019,9 20 60 0,0
11.10.2019 10:00:00 13,7 9,3 12,1 16,0 18,1 8 4 22 12 OZO 1020,2 20 60 0,0
11.10.2019 09:00:00 10,9 8,5 8,2 16,1 18,1 6 4 17 9 OZO 1020,3 20 30 0,0
11.10.2019 08:00:00 9,7 8,1 8,1 16,2 18,1 8 4 19 11 OZO 1020,1 20 0 0,0
11.10.2019 07:00:00 11,0 8,7 9,4 16,3 18,1 10 6 20 11 OZO 1020,2 20 0 0,0
11.10.2019 06:00:00 11,6 9,3 9,6 16,5 18,1 9 5 19 10 OZO 1020,5 20 0 0,0
11.10.2019 05:00:00 11,5 9,4 8,1 16,6 18,1 8 4 15 8 OZO 1021,0 20 0 0,0
11.10.2019 04:00:00 10,8 8,9 6,8 16,7 18,1 7 4 11 6 OZO 1021,7 20 0 0,0
11.10.2019 03:00:00 10,9 8,8 7,1 16,9 18,1 4 2 11 6 O 1022,3 20 0 0,0
11.10.2019 02:00:00 10,2 8,6 7,5 17,0 18,1 9 5 12 6 OZO 1022,6 20 0 0,0
11.10.2019 01:00:00 11,8 9,2 9,2 17,1 18,2 8 4 13 7 OZO 1022,9 20 0 0,0
11.10.2019 00:00:00 12,5 9,7 9,9 17,2 18,2 9 5 14 7 OZO 1023,1 20 0 0,0
10.10.2019 23:00:00 12,4 10,1 9,9 17,3 18,2 8 5 13 7 OZO 1023,0 20 0 0,0
10.10.2019 22:00:00 12,5 10,4 10,1 17,3 18,2 7 4 11 6 OZO 1023,1 20 0 0,0
10.10.2019 21:00:00 13,3 11,2 9,7 17,3 18,2 8 4 9 5 OZO 1022,9 20 0 0,0
10.10.2019 20:00:00 15,2 11,6 10,4 17,3 18,2 5 3 8 4 ZO 1022,4 19 0 0,0
10.10.2019 19:00:00 17,1 11,6 15,9 17,2 18,2 3 2 8 5 NNO 1022,3 20 12 0,0
10.10.2019 18:00:00 18,0 11,1 18,8 17,1 18,2 0 0 6 4 N 1022,2 20 9 0,0
10.10.2019 17:00:00 19,5 11,0 27,5 16,9 18,2 5 3 14 8 NNW 1022,0 20 56 0,0
10.10.2019 16:00:00 18,0 11,3 22,9 16,7 18,2 5 3 16 9 N 1022,6 20 39 0,0
10.10.2019 15:00:00 17,6 11,6 21,3 16,5 18,2 5 3 18 10 WNW 1023,2 20 19 0,0
10.10.2019 14:00:00 17,2 11,7 18,9 16,4 18,2 4 2 14 8 WZW 1023,7 20 18 0,0
10.10.2019 13:00:00 17,3 13,0 17,7 16,3 18,2 6 4 17 9 ZZW 1024,1 20 44 0,0
10.10.2019 12:00:00 14,6 12,1 15,6 16,3 18,2 8 4 16 9 ZZW 1024,6 20 23 0,0
10.10.2019 11:00:00 13,9 12,6 13,5 16,3 18,2 5 3 13 7 ZW 1024,7 20 12 0,0
10.10.2019 10:00:00 12,1 11,6 11,7 16,3 18,2 6 3 16 9 Z 1024,5 20 0 0,0
10.10.2019 09:00:00 11,5 11,2 10,6 16,4 18,2 6 3 14 8 Z 1023,6 20 4 0,0
10.10.2019 08:00:00 10,9 10,6 10,3 16,5 18,3 6 4 14 8 Z 1023,2 14 0 0,4
10.10.2019 07:00:00 10,6 10,1 9,6 16,6 18,2 7 4 12 6 Z 1023,0 17 0 0,0
10.10.2019 06:00:00 10,5 10,2 9,1 16,7 18,2 5 3 11 6 Z 1022,6 17 0 0,0
10.10.2019 05:00:00 10,4 10,1 8,2 16,8 18,2 6 4 11 6 Z 1022,6 16 0 0,0
10.10.2019 04:00:00 10,3 9,8 8,1 16,9 18,2 5 3 11 6 ZZW 1022,6 16 0 0,0
10.10.2019 03:00:00 10,5 10,0 7,7 17,1 18,3 6 3 10 5 Z 1022,2 19 0 0,0
10.10.2019 02:00:00 10,7 9,8 8,8 17,2 18,2 6 4 18 10 Z 1022,5 20 0 0,0
10.10.2019 01:00:00 10,6 9,5 7,7 17,3 18,2 7 4 15 8 Z 1022,3 20 0 0,0
10.10.2019 00:00:00 10,0 8,8 7,6 17,4 18,2 5 3 10 6 ZZO 1022,6 20 0 0,0
09.10.2019 23:00:00 10,8 9,1 7,7 17,5 18,3 4 2 12 6 ZZO 1022,5 20 0 0,0
09.10.2019 22:00:00 11,7 9,4 8,8 17,6 18,2 3 1 13 7 ZZW 1021,9 20 0 0,0
09.10.2019 21:00:00 13,5 9,5 9,9 17,7 18,2 2 1 7 4 ZW 1021,5 20 0 0,0

tt = temperatuur
td = dauwpunt
tt 5cm = temperatuur 5cm
tt -20cm = temperatuur -20cm
tt -100cm = temperatuur -100cm
ff = windsnelheid
fx = windstoten
dd = windrichting
ppp = luchtdruk
vv = zicht
sd = Zonneschijnduur
rr = neerslag

Weerstations in de omgeving